When you browse on this site, cookies collect data to enhance your experience and personalize the content and advertising you see.
Visit our Privacy Policy to learn more. By continuing to use the site, you agree to this use of cookies and data.
  • en France
  • Liste des pays
  • À 7 jours
  • Température de l'eau
  • Carte satellitaire
  • Carte météo
  • Widgets météo
  • user-avatar
    Se connecter

    Météo par heure à La Paz

    Ce jour, 23 Mars, Samedi

    Heure Température Précipitation Vent Pression Humidité
    00:00 +6°C° 0 mm 2 m/s 474 mmHg 85%
    01:00 +6°C° 0 mm 2 m/s 474 mmHg 83%
    02:00 +6°C° 0 mm 1 m/s 473 mmHg 84%
    03:00 +6°C° 0 mm 1 m/s 473 mmHg 85%
    04:00 +5°C° 0 mm 1 m/s 473 mmHg 86%
    05:00 +6°C° 0 mm 1 m/s 474 mmHg 79%
    06:00 +7°C° 0 mm 1 m/s 475 mmHg 72%
    07:00 +8°C° 0 mm 1 m/s 475 mmHg 66%
    08:00 +10°C° 0 mm 1 m/s 476 mmHg 58%
    09:00 +11°C° 0 mm 1 m/s 478 mmHg 51%
    10:00 +13°C° 0 mm 2 m/s 479 mmHg 44%
    11:00 +14°C° 0 mm 2 m/s 478 mmHg 46%
    12:00 +14°C° 0 mm 2 m/s 478 mmHg 48%
    13:00 +13°C° 0 mm 3 m/s 477 mmHg 51%
    14:00 +13°C° 0 mm 3 m/s 477 mmHg 54%
    15:00 +13°C° 0 mm 3 m/s 476 mmHg 58%
    16:00 +12°C° 0 mm 3 m/s 475 mmHg 62%
    17:00 +11°C° 0.1 mm 3 m/s 475 mmHg 69%
    18:00 +10°C° 0.1 mm 3 m/s 475 mmHg 77%
    19:00 +9°C° 0.1 mm 3 m/s 475 mmHg 84%
    20:00 +8°C° 0 mm 3 m/s 475 mmHg 85%
    21:00 +8°C° 0 mm 2 m/s 475 mmHg 85%
    22:00 +8°C° 0 mm 2 m/s 475 mmHg 86%
    23:00 +8°C° 0 mm 2 m/s 475 mmHg 87%

    Demain, 24 Mars, Dimanche

    Heure Température Précipitation Vent Pression Humidité
    00:00 +8°C° 0 mm 1 m/s 475 mmHg 88%
    01:00 +8°C° 0 mm 1 m/s 474 mmHg 89%
    02:00 +7°C° 0 mm 1 m/s 474 mmHg 89%
    03:00 +7°C° 0 mm 1 m/s 473 mmHg 89%
    04:00 +7°C° 0 mm 1 m/s 473 mmHg 89%
    05:00 +7°C° 0 mm 1 m/s 474 mmHg 85%
    06:00 +8°C° 0 mm 1 m/s 474 mmHg 80%
    07:00 +9°C° 0 mm 1 m/s 475 mmHg 76%
    08:00 +10°C° 0 mm 1 m/s 476 mmHg 70%
    09:00 +11°C° 0 mm 1 m/s 476 mmHg 64%
    10:00 +12°C° 0 mm 2 m/s 477 mmHg 58%
    11:00 +13°C° 0.1 mm 2 m/s 477 mmHg 59%
    12:00 +13°C° 0.1 mm 2 m/s 476 mmHg 60%
    13:00 +12°C° 0.1 mm 3 m/s 476 mmHg 61%
    14:00 +12°C° 0.2 mm 3 m/s 475 mmHg 62%
    15:00 +12°C° 0.2 mm 3 m/s 475 mmHg 63%
    16:00 +12°C° 0.2 mm 4 m/s 475 mmHg 65%
    17:00 +11°C° 0.1 mm 4 m/s 475 mmHg 71%
    18:00 +10°C° 0.1 mm 4 m/s 475 mmHg 77%
    19:00 +8°C° 0.1 mm 4 m/s 474 mmHg 83%
    20:00 +7°C° 0 mm 4 m/s 475 mmHg 84%
    21:00 +8°C° 0 mm 3 m/s 475 mmHg 86%
    22:00 +8°C° 0 mm 3 m/s 475 mmHg 87%
    23:00 +7°C° 0 mm 3 m/s 475 mmHg 87%

    Après-demain, 25 Mars, Lundi

    Heure Température Précipitation Vent Pression Humidité
    00:00 +7°C° 0 mm 2 m/s 474 mmHg 87%
    01:00 +6°C° 0 mm 2 m/s 474 mmHg 88%
    02:00 +6°C° 0.4 mm 2 m/s 473 mmHg 88%
    03:00 +7°C° 0.4 mm 1 m/s 473 mmHg 89%
    04:00 +7°C° 0.4 mm 1 m/s 472 mmHg 89%
    05:00 +7°C° 1.2 mm 1 m/s 473 mmHg 87%
    06:00 +7°C° 1.2 mm 1 m/s 473 mmHg 85%
    07:00 +8°C° 1.2 mm 1 m/s 474 mmHg 83%
    08:00 +8°C° 1.2 mm 2 m/s 475 mmHg 79%
    09:00 +8°C° 1.2 mm 2 m/s 475 mmHg 74%
    10:00 +9°C° 1.2 mm 2 m/s 476 mmHg 70%
    11:00 +10°C° 0.8 mm 3 m/s 476 mmHg 69%
    12:00 +10°C° 0.8 mm 3 m/s 475 mmHg 69%
    13:00 +11°C° 0.8 mm 3 m/s 475 mmHg 68%
    14:00 +10°C° 0.4 mm 3 m/s 474 mmHg 70%
    15:00 +10°C° 0.4 mm 3 m/s 474 mmHg 72%
    16:00 +10°C° 0.4 mm 3 m/s 473 mmHg 74%
    17:00 +9°C° 0.2 mm 3 m/s 473 mmHg 79%
    18:00 +8°C° 0.2 mm 3 m/s 473 mmHg 84%
    19:00 +7°C° 0.2 mm 3 m/s 473 mmHg 89%
    20:00 +7°C° 0.3 mm 3 m/s 473 mmHg 90%
    21:00 +5°C° 0.3 mm 3 m/s 473 mmHg 91%
    22:00 +6°C° 0.3 mm 2 m/s 474 mmHg 92%
    23:00 +6°C° 0.3 mm 2 m/s 473 mmHg 92%

    26 Mars, Mardi

    Heure Température Précipitation Vent Pression Humidité
    00:00 +6°C° 0.3 mm 2 m/s 473 mmHg 92%
    01:00 +7°C° 0.3 mm 1 m/s 473 mmHg 92%
    02:00 +7°C° 0.5 mm 1 m/s 473 mmHg 92%
    03:00 +7°C° 0.5 mm 1 m/s 472 mmHg 91%
    04:00 +7°C° 0.5 mm 1 m/s 472 mmHg 91%
    05:00 +7°C° 0.6 mm 1 m/s 473 mmHg 90%
    06:00 +7°C° 0.6 mm 1 m/s 473 mmHg 89%
    07:00 +7°C° 0.6 mm 1 m/s 474 mmHg 88%
    08:00 +7°C° 0.8 mm 2 m/s 474 mmHg 84%
    09:00 +7°C° 0.8 mm 2 m/s 474 mmHg 81%
    10:00 +8°C° 0.8 mm 3 m/s 475 mmHg 77%
    11:00 +9°C° 0.4 mm 3 m/s 475 mmHg 74%
    12:00 +10°C° 0.4 mm 4 m/s 475 mmHg 71%
    13:00 +10°C° 0.4 mm 4 m/s 475 mmHg 69%
    14:00 +10°C° 0.2 mm 4 m/s 474 mmHg 71%
    15:00 +10°C° 0.2 mm 4 m/s 474 mmHg 73%
    16:00 +8°C° 0.2 mm 4 m/s 473 mmHg 75%
    17:00 +7°C° 0.1 mm 4 m/s 473 mmHg 80%
    18:00 +6°C° 0.1 mm 4 m/s 473 mmHg 86%
    19:00 +5°C° 0.1 mm 4 m/s 473 mmHg 92%
    20:00 +5°C° 0.3 mm 3 m/s 473 mmHg 91%
    21:00 +5°C° 0.3 mm 3 m/s 474 mmHg 90%
    22:00 +5°C° 0.3 mm 3 m/s 474 mmHg 88%
    23:00 +5°C° 0.5 mm 3 m/s 474 mmHg 88%

    27 Mars, Mercredi

    Heure Température Précipitation Vent Pression Humidité
    00:00 +6°C° 0.5 mm 2 m/s 474 mmHg 88%
    01:00 +6°C° 0.5 mm 2 m/s 473 mmHg 87%
    02:00 +5°C° 0.5 mm 2 m/s 473 mmHg 87%
    03:00 +5°C° 0.5 mm 2 m/s 473 mmHg 88%
    04:00 +5°C° 0.5 mm 2 m/s 473 mmHg 88%
    05:00 +6°C° 0.7 mm 2 m/s 474 mmHg 87%
    06:00 +6°C° 0.7 mm 2 m/s 474 mmHg 86%
    07:00 +6°C° 0.7 mm 2 m/s 475 mmHg 86%
    08:00 +7°C° 1 mm 2 m/s 475 mmHg 83%
    09:00 +7°C° 1 mm 2 m/s 476 mmHg 79%
    10:00 +8°C° 1 mm 2 m/s 476 mmHg 76%
    11:00 +8°C° 0.7 mm 3 m/s 476 mmHg 74%
    12:00 +9°C° 0.7 mm 3 m/s 476 mmHg 71%
    13:00 +10°C° 0.7 mm 4 m/s 476 mmHg 69%
    14:00 +8°C° 0.3 mm 4 m/s 475 mmHg 70%
    15:00 +8°C° 0.3 mm 4 m/s 475 mmHg 71%
    16:00 +8°C° 0.3 mm 5 m/s 474 mmHg 72%
    17:00 +7°C° 0 mm 4 m/s 474 mmHg 78%
    18:00 +6°C° 0 mm 4 m/s 474 mmHg 83%
    19:00 +5°C° 0 mm 3 m/s 474 mmHg 89%
    20:00 +5°C° 0.2 mm 3 m/s 474 mmHg 89%
    21:00 +5°C° 0.2 mm 3 m/s 474 mmHg 90%
    22:00 +4°C° 0.2 mm 3 m/s 475 mmHg 90%
    23:00 +5°C° 0.2 mm 2 m/s 475 mmHg 90%

    28 Mars, Jeudi

    Heure Température Précipitation Vent Pression Humidité
    00:00 +5°C° 0.2 mm 2 m/s 474 mmHg 90%
    01:00 +5°C° 0.2 mm 2 m/s 474 mmHg 90%
    02:00 +6°C° 0.3 mm 1 m/s 474 mmHg 89%
    03:00 +6°C° 0.3 mm 1 m/s 474 mmHg 88%
    04:00 +6°C° 0.3 mm 1 m/s 474 mmHg 87%
    05:00 +7°C° 0.2 mm 1 m/s 475 mmHg 86%
    06:00 +7°C° 0.2 mm 1 m/s 475 mmHg 85%
    07:00 +6°C° 0.2 mm 0 m/s 476 mmHg 83%
    08:00 +8°C° 0.1 mm 1 m/s 476 mmHg 79%
    09:00 +9°C° 0.1 mm 1 m/s 477 mmHg 75%
    10:00 +9°C° 0.1 mm 2 m/s 477 mmHg 72%
    11:00 +9°C° 0.1 mm 2 m/s 477 mmHg 70%
    12:00 +10°C° 0.1 mm 2 m/s 477 mmHg 69%
    13:00 +10°C° 0.1 mm 3 m/s 476 mmHg 68%
    14:00 +10°C° 0.1 mm 3 m/s 476 mmHg 69%
    15:00 +10°C° 0.1 mm 3 m/s 476 mmHg 69%
    16:00 +10°C° 0.1 mm 3 m/s 475 mmHg 70%
    17:00 +9°C° 0.1 mm 3 m/s 475 mmHg 76%
    18:00 +8°C° 0.1 mm 3 m/s 475 mmHg 81%
    19:00 +7°C° 0.1 mm 3 m/s 475 mmHg 87%
    20:00 +7°C° 0 mm 3 m/s 475 mmHg 88%
    21:00 +7°C° 0 mm 3 m/s 475 mmHg 90%
    22:00 +6°C° 0 mm 2 m/s 476 mmHg 91%
    23:00 +6°C° 0 mm 2 m/s 475 mmHg 90%
    Voir plus